Terug naar catalogus

CZ-4 DEB

LostSSO
NORAD 35324·DEBRIS·🇨🇳 China

Gelanceerd Oct 14, 1999 vanaf Taiyuan Satellite Launch Center

Loading…

Volgende Passages (komende 24 uur)

TLE

VerouderdSource: Space-Track

Epoch: Oct 1, 2011, 03:51 UTC

1 35324U 99057SC  11274.16073958 -.00003280  00000-0 -11189-2 0  9998
2 35324  98.3666 234.7514 0095375 207.6294 152.0497 14.33273117302669

Volg CZ-4 DEB in realtime met AllMySat

Download on the App Store